Zurück zum Katalog

STARLINK-2702

AktivKommunikationVLEO
NORAD 48441·PAYLOAD·🇺🇸 United States

Gestartet May 9, 2021 von Cape Canaveral Space Force Station

Loading…

Nächste Überflüge (nächste 24 Stunden)

TLE

AktuellSource: CelesTrak SupGP

Epoche: Sep 15, 2026, 02:38 UTC

1 48441C 21040P   26258.11020833  .00019014  00000+0  61141-3 0  2587
2 48441  53.1604  16.6888 0001271  89.8360 230.8717 15.31693709    17

Verfolge STARLINK-2702 in Echtzeit mit AllMySat

Download on the App Store